TimeEST,TemperatureF,Dew PointF,Humidity,Sea Level PressureIn,VisibilityMPH,Wind Direction,Wind SpeedMPH,Gust SpeedMPH,PrecipitationIn,Events,Conditions,WindDirDegrees,DateUTC
12:54 AM,37.0,30.0,76,30.06,10.0,ENE,5.8,-,N/A,,Overcast,70,2012-11-06 05:54:00
1:54 AM,37.9,30.0,73,30.05,10.0,ENE,5.8,-,N/A,,Overcast,60,2012-11-06 06:54:00
2:54 AM,37.0,30.0,76,30.05,10.0,ENE,6.9,-,N/A,,Overcast,60,2012-11-06 07:54:00
3:54 AM,36.0,28.9,76,30.03,10.0,NE,5.8,-,N/A,,Overcast,40,2012-11-06 08:54:00
4:54 AM,33.1,28.0,82,30.04,10.0,NE,6.9,-,N/A,,Mostly Cloudy,50,2012-11-06 09:54:00
5:54 AM,30.9,27.0,85,30.04,10.0,East,3.5,-,N/A,,Clear,80,2012-11-06 10:54:00
6:54 AM,30.9,27.0,85,30.04,10.0,NNE,4.6,-,N/A,,Scattered Clouds,20,2012-11-06 11:54:00
7:54 AM,30.9,28.0,89,30.04,10.0,NE,4.6,-,N/A,,Clear,50,2012-11-06 12:54:00
8:54 AM,37.0,30.0,76,30.04,10.0,East,5.8,-,N/A,,Clear,80,2012-11-06 13:54:00
9:54 AM,42.1,30.0,62,30.04,10.0,Calm,Calm,-,N/A,,Clear,0,2012-11-06 14:54:00
10:54 AM,46.0,32.0,58,30.04,10.0,Calm,Calm,-,N/A,,Clear,0,2012-11-06 15:54:00
11:54 AM,48.9,33.1,54,30.01,10.0,NW,4.6,-,N/A,,Clear,320,2012-11-06 16:54:00
12:54 PM,51.1,33.1,50,29.99,10.0,NW,6.9,-,N/A,,Clear,320,2012-11-06 17:54:00
1:54 PM,53.1,34.0,48,29.96,10.0,ENE,3.5,-,N/A,,Clear,60,2012-11-06 18:54:00
2:54 PM,51.1,33.1,50,29.96,10.0,West,3.5,-,N/A,,Clear,280,2012-11-06 19:54:00
3:54 PM,52.0,34.0,50,29.95,10.0,Calm,Calm,-,N/A,,Overcast,0,2012-11-06 20:54:00
4:54 PM,50.0,34.0,54,29.94,10.0,North,4.6,-,N/A,,Overcast,10,2012-11-06 21:54:00
5:54 PM,46.9,33.1,59,29.93,10.0,Calm,Calm,-,N/A,,Mostly Cloudy,0,2012-11-06 22:54:00
6:54 PM,46.9,33.1,59,29.94,10.0,NE,3.5,-,N/A,,Overcast,40,2012-11-06 23:54:00
7:54 PM,46.0,35.1,66,29.95,10.0,Calm,Calm,-,N/A,,Overcast,0,2012-11-07 00:54:00
8:54 PM,46.9,33.1,59,29.94,10.0,Calm,Calm,-,N/A,,Overcast,0,2012-11-07 01:54:00
9:54 PM,46.0,34.0,63,29.94,10.0,Calm,Calm,-,N/A,,Overcast,0,2012-11-07 02:54:00
10:54 PM,42.1,37.0,82,29.92,10.0,Calm,Calm,-,N/A,,Overcast,0,2012-11-07 03:54:00
11:54 PM,44.1,35.1,71,29.91,10.0,WSW,3.5,-,N/A,,Overcast,240,2012-11-07 04:54:00